Lucknow, India

4:33 AM IST on December 17, 2017 (GMT +0530)
Lucknow

Weather History for VILK - December, 2013

Change the Weather History Date:

Sunday, December 15, 2013

  Actual Average Record
Temperature  
Mean Temperature 58 °F -  
Max Temperature 75 °F 66 °F 96 °F (2014)
Min Temperature 41 °F 49 °F 41 °F (2013)
Degree Days  
Heating Degree Days 7    
Growing Degree Days 8 (Base 50)    
Moisture  
Dew Point 52 °F    
Average Humidity 77    
Maximum Humidity 94    
Minimum Humidity 34    
Precipitation  
Precipitation 0.00 in - - ()
Sea Level Pressure  
Sea Level Pressure 29.96 in    
Wind  
Wind Speed 1 mph ()    
Max Wind Speed 5 mph    
Max Gust Speed -    
Visibility 0.8 miles    
Events Fog    
Averages and records for this station are not official NWS values.
T = Trace of Precipitation, MM = Missing Value Source: Averaged Metar Reports

Daily Weather History Graph

Daily Weather History Graph

Search for Another Location

Airport or City:

Trip Planner

Search our weather history database for the weather conditions in past years. The results will help you decide how hot, cold, wet, or windy it might be!

Date:

Astronomy

Dec. 15, 2013 Rise Set
Actual Time 6:47 AM IST 5:15 PM IST
Civil Twilight 6:21 AM IST 5:41 PM IST
Nautical Twilight 5:53 AM IST 6:10 PM IST
Astronomical Twilight 5:24 AM IST 6:38 PM IST
Moon 3:52 PM IST (12/15) 4:45 AM IST (12/15)
Length of Visible Light 11h 19m
Length of Day
10h 28m
Waxing Gibbous, 96% of the Moon is Illuminated
Dec 15
Waxing Gibbous
Dec 17
Full
Dec 25
Last Quarter
Jan 1
New
Jan 8
First Quarter

Hourly Weather History & Observations

Time (IST) Temp. Dew Point Humidity Pressure Visibility Wind Dir Wind Speed Gust Speed Precip Events Conditions
2:30 AM 54 °F 52 °F 89% 29.95 in 0 mi Calm Calm - - Fog Partial Fog
3:00 AM 53.6 °F 51.8 °F 94% 29.92 in 0.0 mi Calm Calm - N/A Fog Fog
4:00 AM 53.6 °F 51.8 °F 94% 29.92 in 0.0 mi Variable 1.2 mph - N/A Fog Fog
5:00 AM 50.0 °F 48.2 °F 94% 29.92 in 0.1 mi Calm Calm - N/A Fog Fog
5:30 AM 47 °F 45 °F 88% 29.96 in 0 mi Calm Calm - - Fog Partial Fog
5:30 AM 46.4 °F 44.6 °F 93% 29.92 in 0.1 mi Calm Calm - N/A Fog Fog
6:00 AM 46.4 °F 44.6 °F 93% 29.92 in 0.1 mi Calm Calm - N/A Fog Fog
6:30 AM 46.4 °F 44.6 °F 93% 29.95 in 0.1 mi Calm Calm - N/A Fog Fog
7:00 AM 46.4 °F 44.6 °F 93% 29.95 in 0.1 mi Calm Calm - N/A Fog Fog
7:30 AM 46.4 °F 44.6 °F 93% 29.98 in 0.2 mi Calm Calm - N/A Fog Fog
8:30 AM 50 °F 48 °F 91% 30.03 in 0 mi Calm Calm - - Fog Partial Fog
8:30 AM 50.0 °F 48.2 °F 94% 30.01 in 0.3 mi Calm Calm - N/A Fog Fog
9:00 AM 53.6 °F 50.0 °F 88% 30.01 in 0.4 mi Calm Calm - N/A Fog Fog
11:00 AM 66.2 °F 57.2 °F 73% 30.01 in 1.1 mi Variable 2.3 mph - N/A   Mist
11:30 AM 70 °F 59 °F 59% 30.01 in 1 mi 2.3 mph - -   Haze
11:30 AM 69.8 °F 59.0 °F 68% 30.01 in 1.2 mi Variable 2.3 mph - N/A   Haze
12:00 PM 71.6 °F 59.0 °F 64% 29.98 in 1.2 mi East 4.6 mph - N/A   Haze
12:30 PM 71.6 °F 55.4 °F 57% 29.95 in 1.6 mi SSE 3.5 mph - N/A   Haze
2:00 PM 73.4 °F 53.6 °F 50% 29.92 in 1.9 mi Variable 2.3 mph - N/A   Haze
2:30 PM 74 °F 51 °F 34% 29.93 in 1 mi 2.3 mph - -   Haze
2:30 PM 73.4 °F 51.8 °F 47% 29.92 in 1.9 mi Variable 2.3 mph - N/A   Haze
3:00 PM 73.4 °F 51.8 °F 47% 29.89 in 1.9 mi Variable 2.3 mph - N/A   Haze
3:30 PM 73.4 °F 51.8 °F 47% 29.89 in 1.9 mi Variable 2.3 mph - N/A   Haze
4:00 PM 73.4 °F 51.8 °F 47% 29.89 in 1.9 mi Variable 2.3 mph - N/A   Haze
4:30 PM 71.6 °F 60.8 °F 69% 29.92 in 1.6 mi Calm Calm - N/A   Haze
5:00 PM 71.6 °F 60.8 °F 69% 29.92 in 1.2 mi Calm Calm - N/A   Smoke
5:30 PM 66 °F 57 °F 65% 29.94 in 1 mi Calm Calm - -   Smoke
5:30 PM 66.2 °F 57.2 °F 73% 29.92 in 1.2 mi Calm Calm - N/A   Smoke
6:30 PM 60.8 °F 53.6 °F 77% 29.95 in 0.9 mi Variable 2.3 mph - N/A   Mist
7:00 PM 59.0 °F 53.6 °F 82% 29.95 in 0.9 mi Variable 2.3 mph - N/A   Mist
7:30 PM 59.0 °F 53.6 °F 82% 29.98 in 0.9 mi Calm Calm - N/A   Mist
8:00 PM 57.2 °F 53.6 °F 88% 29.98 in 0.9 mi Calm Calm - N/A   Mist
8:30 PM 57 °F 53 °F 81% 30.00 in 1 mi Calm Calm - -   Mist
8:30 PM 57.2 °F 53.6 °F 88% 29.98 in 0.9 mi Calm Calm - N/A   Mist
9:00 PM 57.2 °F 53.6 °F 88% 29.98 in 0.9 mi Calm Calm - N/A   Mist
11:00 PM 55.4 °F 53.6 °F 94% 29.98 in 0.4 mi Calm Calm - N/A Fog Fog
11:30 PM 53 °F 50 °F 87% 30.00 in 0 mi Calm Calm - - Fog Partial Fog